Regional Weather Roundup
Issued by NWS Kansas City/Pleasant Hill, MO

Home | Current Version | Previous Version | Text Only | Print | Product List | Glossary On
Versions: 1 2 3 4 5 6 7 8 9 10 11 12 13 14 15 16 17 18 19 20 21 22 23 24 25 26 27 28 29 30 31 32 33 34 35 36 37 38 39 40 41 42 43 44 45 46 47 48 49 50
000
ASUS43 KEAX 270610
RWREAX

WEATHER ROUNDUP FOR EASTERN KANSAS AND NORTHWEST MISSOURI
NATIONAL WEATHER SERVICE KANSAS CITY/PLEASANT HILL MO
100 AM CDT TUE JUN 27 2017

KSZ040-057-103>105-MOZ028-029-037-043-270700-
...KANSAS CITY METROPOLITAN AREA...

CITY           SKY/WX    TMP DP  RH WIND       PRES   REMARKS
K.C. INTL      CLEAR     61  58  90 E5        30.15S
6HR MIN TEMP:  59; 6HR MAX TEMP:  66; 6HR PCP: TRACE;

K.C. DOWNTOWN  CLEAR     60  58  92 E3        30.14S
6HR MIN TEMP:  60; 6HR MAX TEMP:  72; 6HR PCP:  0.02;

LEES SUMMIT    CLEAR     60  59  96 E6        30.16R
6HR MIN TEMP:  59; 6HR MAX TEMP:  71; 6HR PCP:  0.05;

OLATHE - IXD   CLEAR     58  55  90 NE6       30.15R
6HR MIN TEMP:  58; 6HR MAX TEMP:  69; 6HR PCP:  0.08;

OLATHE - OJC   CLEAR     59  58  96 E7        30.14S
6HR MIN TEMP:  58; 6HR MAX TEMP:  68; 6HR PCP:  0.01;

LAWRENCE       CLEAR     59  58  96 CALM      30.14R

$$

MOZ001>008-011>017-020>025-030>033-038>040-044>046-053-054-270700-
...NORTHERN AND CENTRAL MISSOURI...

CITY           SKY/WX    TMP DP  RH WIND       PRES   REMARKS
ST. JOSEPH     CLEAR     55  55 100 CALM      30.15R
6HR MIN TEMP:  55; 6HR MAX TEMP:  69;

MOSBY            N/A     55  55 100 CALM      30.15S FOG
WARRENSBURG    FOG       59  57  94 CALM      30.16R VSB 1/2
WHITEMAN AFB   PTCLDY    58  58 100 CALM      30.15R FOG
6HR MIN TEMP:  58; 6HR MAX TEMP:  67; 6HR PCP:  0.05;

CLINTON        CLEAR     59  55  88 CALM      30.16R
SEDALIA        CLEAR     60  60 100 CALM      30.17R FOG
6HR MIN TEMP:  59; 6HR MAX TEMP:  69; 6HR PCP:  0.05;

WARSAW         NOT AVBL
CHILLICOTHE      N/A     56  55  97 CALM      30.16R
6HR MIN TEMP:  56; 6HR MAX TEMP:  72;

KIRKSVILLE     CLEAR     55  54  96 NW3       30.15S
6HR MIN TEMP:  55; 6HR MAX TEMP:  71;


$$

MOZ041-047>049-056>058-063>065-088>090-097-270700-
...EASTERN AND SOUTHERN MISSOURI...

CITY           SKY/WX    TMP DP  RH WIND       PRES   REMARKS
ST. LOUIS INTL CLEAR     63  56  78 W3        30.14R
6HR MIN TEMP:  63; 6HR MAX TEMP:  72;

SPIRIT OF STL  CLEAR     56  55  97 CALM      30.13R
COLUMBIA       CLEAR     59  59 100 CALM      30.15R
JEFFERSON CITY PTCLDY    60  58  92 CALM      30.15R
ROLLA          PTCLDY    57  56  96 CALM      30.14R
OSAGE BEACH    MOCLDY    59  58  96 CALM      30.17R
SPRINGFIELD    LGT RAIN  63  62  97 S8        30.14F
BRANSON          N/A     63  57  82 N8        30.16R
JOPLIN         CLOUDY    65  64  97 E12       30.11F
WEST PLAINS    TSTM      61  58  90 NE5       30.17R

$$

IAZ060-094-KSZ022-034>040-054-083-096-NEZ052-066-093-270700-
...KANSAS...SOUTHEAST NEBRASKA AND IOWA...

CITY           SKY/WX    TMP DP  RH WIND       PRES   REMARKS
TOPEKA         CLEAR     61  61 100 E3        30.14R
6HR MIN TEMP:  60; 6HR MAX TEMP:  68; 6HR PCP:  0.14;

MANHATTAN      CLEAR     62  60  93 CALM      30.13R
EMPORIA        CLOUDY    62  61  96 NE3       30.13R
CHANUTE        CLEAR     64  62  93 E7        30.10S
WICHITA        MOCLDY    68  66  93 E7        30.08R
OMAHA          CLEAR     59  49  69 CALM      30.15R
LINCOLN        CLEAR     58  52  80 CALM      30.15S
FALLS CITY     FOG       57  57 100 CALM      30.14S VSB 1
LAMONI         PTCLDY    61  49  64 CALM      30.16R
DES MOINES     PTCLDY    61  44  53 E3        30.15S

$$




USA.gov is the U.S. government's official web portal to all federal, state and local government web resources and services.